Miscellaneous Local Product
Issued by NWS Hastings, NE

Home | Current Version | Previous Version | Graphics & Text | Print | Product List | Glossary On
Versions: 1 2 3 4 5 6 7 8 9 10 11 12 13 14 15 16 17 18 19 20 21 22 23 24 25 26 27 28 29 30 31 32 33 34 35 36 37 38 39 40 41 42 43 44 45 46 47 48 49 50
000
AXUS43 KGID 252102
MISGRI

GID CWA HOURLY WEATHER ROUNDUP
NATIONAL WEATHER SERVICE HASTINGS NE
300 PM CST WED FEB 25 2015

NOTE: "FAIR" INDICATES FEW OR NO CLOUDS BELOW 12,000 FEET WITH NO
SIGNIFICANT WEATHER AND/OR OBSTRUCTIONS TO VISIBILITY.

...SOUTH CENTRAL NEBRASKA...

CITY           SKY/WX    TMP DP  RH WIND       PRES   REMARKS
GRAND ISLAND   CLOUDY    29  19  66 N29G38    29.93R WCI  14
HASTINGS       CLOUDY    35  20  54 N28G36    29.89R WCI  22
KEARNEY        CLOUDY    36  21  55 N30G39    29.91R WCI  22
ORD            CLOUDY    22  14  71 N25G33    29.98R WCI   5
YORK           CLOUDY    27  23  86 N29G41    29.89R WCI  11
AURORA         CLOUDY    29  24  81 N28G36    29.89R WCI  14
LEXINGTON      CLOUDY    38  27  62 N28G38    29.90R WCI  27
HOLDREGE       CLOUDY    39  25  57 N30G41    29.87R WCI  28
HEBRON         FLURRIES  32  26  78 N23G38    29.87R WCI  19

...NEBRASKA PANHANDLE...

CITY           SKY/WX    TMP DP  RH WIND       PRES   REMARKS
CHADRON        CLOUDY    27  20  75 NE17      30.04R WCI  14
ALLIANCE       CLOUDY    29  24  82 N17       29.96R WCI  17
SCOTTSBLUFF    PTSUNNY   38  25  59 N16G23    29.96R WCI  29
SIDNEY         CLOUDY    32  27  81 NE23      29.94R WCI  19

...WESTERN AND NORTH CENTRAL NEBRASKA...

CITY           SKY/WX    TMP DP  RH WIND       PRES   REMARKS
VALENTINE      LGT SNOW  16  10  77 N15       30.06R WCI   1
AINSWORTH      LGT SNOW  16  11  80 N23G30    30.03R WCI  -2
ONEILL         LGT SNOW  18  14  84 N20G29    30.02R WCI   2
BROKEN BOW     CLOUDY    27  18  69 N30G38    29.96R WCI  11
IMPERIAL         N/A     41  26  55 N26G33    29.90R
NORTH PLATTE   PTSUNNY   35  22  58 N23G35    29.95R WCI  23
MCCOOK         CLOUDY    44  28  53 N23G31    29.88R

...EASTERN NEBRASKA...

CITY           SKY/WX    TMP DP  RH WIND       PRES   REMARKS
NORFOLK        CLOUDY    21  15  78 N22       29.96R WCI   5
SO SIOUX CITY  LGT SNOW  22  14  71 N22G29    29.98R WCI   6
TEKAMAH        CLOUDY    23  17  78 N26       29.94R WCI   6
COLUMBUS       CLOUDY    25  12  58 N25G32    29.94R WCI   9
ALBION         CLOUDY    22  16  79 N20G30    29.94R WCI   7
OMAHA EPPLEY   LGT SNOW  24  20  84 N23       29.87R FOG     WCI   9
MILLARD        LGT SNOW  26  22  82 N13G23    29.86R WCI  15
LINCOLN        CLOUDY    27  22  81 N31G38    29.89R WCI  10
NEBRASKA CITY  LGT SNOW  33  32  95 N24G32    29.75R VSB 3/4 WCI  21
BEATRICE       LGT SNOW  32  30  94 N26G33    29.82R WCI  18
FALLS CITY     CLOUDY    44  33  65 NW29G38   29.71R

...NORTHERN KANSAS...

CITY           SKY/WX    TMP DP  RH WIND       PRES   REMARKS
GOODLAND       CLOUDY    41  32  70 N17G24    29.88R
HILL CITY      CLOUDY    47  30  51 N24G36    29.86R
NORTON         CLOUDY    41  27  56 N25G31    29.86R
PHILLIPSBURG   CLOUDY    46  28  49 N24G35    29.86R
SMITH CENTER   CLOUDY    45  27  49 N29G40    29.85R
BELOIT         CLOUDY    41  30  65 N29G36    29.83R
HAYS           CLOUDY    52  30  43 N31G38    29.80R
RUSSELL        CLOUDY    52  33  48 N30G40    29.78R
CONCORDIA        N/A     37  33  85 N26G35    29.82R WCI  25
SALINA         CLOUDY    50  38  63 N24       29.76R
TOPEKA         CLOUDY    56  25  30 W16       29.71F



USA.gov is the U.S. government's official web portal to all federal, state and local government web resources and services.